Location: Artiguedieu
(43.5000°N, 0.5454°E)
Time: 19:37:18
(UTC+00:00)

Courier 1B Rocket - All Passes

Search period start: 27 July 2021 00:00
Search period end: 06 August 2021 00:00
Orbit: 920 x 1202 km, 28.2° (Epoch: 26 July)

Date Brightness Start Highest point End Pass type
(mag) Time Alt. Az. Time Alt. Az. Time Alt. Az.
27 Jul - 04:28:38 10° SSW 04:32:41 18° S 04:36:43 10° SE daylight
27 Jul - 06:20:54 10° SW 06:25:01 18° S 06:29:11 10° SE daylight
27 Jul - 08:15:46 10° SW 08:17:18 11° SSW 08:18:50 10° S daylight
28 Jul - 03:28:20 10° SSW 03:32:00 16° SSE 03:35:37 10° SE visible
28 Jul - 05:20:03 10° SW 05:24:19 19° S 05:28:37 10° SE daylight
28 Jul - 07:13:40 10° SW 07:16:37 14° SSW 07:19:38 10° SSE daylight
29 Jul - 02:28:21 10° SSW 02:31:19 13° SSE 02:34:15 10° SE visible
29 Jul - 04:19:20 10° SW 04:23:38 19° S 04:27:54 10° SE daylight
29 Jul - 06:12:18 10° SW 06:15:58 16° SSW 06:19:39 10° SSE daylight
30 Jul - 01:29:14 10° S 01:30:38 11° SSE 01:32:03 10° SSE visible
30 Jul - 03:18:42 10° SW 03:22:57 18° S 03:27:05 10° SE visible
30 Jul - 05:11:11 10° SW 05:15:17 18° S 05:19:23 10° SE daylight
30 Jul - 07:06:50 10° SSW 07:07:31 10° SSW 07:08:12 10° SSW daylight
31 Jul - 02:18:16 10° SSW 02:22:14 17° S 02:26:06 10° SE visible
31 Jul - 04:10:13 10° SW 04:14:36 19° S 04:18:55 10° SE visible
31 Jul - 06:04:03 10° SW 06:06:53 13° SSW 06:09:42 10° S daylight
01 Aug - 01:18:04 10° SSW 01:21:31 15° SSE 01:24:53 10° SE visible
01 Aug - 03:09:21 10° SW 03:13:53 20° S 03:18:18 10° SE visible
01 Aug - 05:02:31 10° SW 05:06:14 16° SSW 05:09:54 10° SSE daylight
02 Aug - 00:18:26 10° S 00:20:47 12° SSE 00:23:06 10° SE night (unlit)
02 Aug - 02:08:37 10° SW 02:13:10 19° S 02:17:34 10° SE visible
02 Aug - 04:01:17 10° SW 04:05:33 19° S 04:09:43 10° SSE visible
03 Aug - 01:08:01 10° SSW 01:12:25 18° S 01:16:39 10° SE visible
03 Aug - 03:00:11 10° SW 03:04:51 20° S 03:09:21 10° SE visible
03 Aug - 04:54:13 10° SW 04:57:08 13° SSW 05:00:00 10° S daylight
04 Aug - 00:07:39 10° SSW 00:11:39 16° SSE 00:15:30 10° SE night (unlit)
04 Aug - 01:59:13 10° SW 02:04:06 21° S 02:08:47 10° SE visible
04 Aug - 03:52:32 10° SW 03:56:28 17° SSW 04:00:17 10° SSE visible
04 Aug - 23:07:44 10° S 23:10:52 13° SSE 23:13:55 10° SE night (unlit)
05 Aug - 00:58:21 10° SW 01:03:19 21° S 01:08:04 10° SE visible
05 Aug - 02:51:11 10° SW 02:55:46 19° S 03:00:10 10° SE visible
05 Aug - 04:47:16 10° SSW 04:47:59 10° SSW 04:48:41 10° SSW daylight
05 Aug - 22:09:33 10° SSE 22:10:05 10° SSE 22:10:37 10° SSE night (unlit)
